EW8668 Weather Reports


time (UTC)temp
C
wind
direction
speed
KPH
gust
KPH
rain 1hr
cm
rain 24hr
cm
rain mn
cm
humidity
%
barometer
mb
20260506184805 13 242 0.0 9.7 0.00 1.96 1.96 74 1011.5
20260506184304 13 55 0.0 3.2 0.00 1.96 1.96 72 1011.4
20260506183805 13 280 1.6 16.1 0.00 1.96 1.96 71 1011.2
20260506183304 14 268 3.2 9.7 0.00 1.96 1.96 70 1011.0
20260506181804 15 294 3.2 8.0 0.00 1.96 1.96 67 1011.2
20260506180806 15 273 3.2 8.0 0.00 1.96 1.96 65 1010.8
20260506180305 15 304 3.2 12.9 0.00 1.96 1.96 65 1010.8
20260506174805 16 306 3.2 14.5 0.00 1.96 1.96 62 1010.5
20260506174305 16 280 4.8 16.1 0.00 1.96 1.96 60 1010.5
20260506173805 17 276 3.2 4.8 0.00 1.96 1.96 58 1010.3
20260506173305 17 300 3.2 11.3 0.00 1.96 1.96 58 1010.2
20260506171305 17 304 4.8 11.3 0.00 1.96 1.96 55 1010.1
20260506170306 18 312 1.6 22.5 0.00 1.96 1.96 53 1009.8
20260506164304 18 316 3.2 11.3 0.00 1.96 1.96 49 1010.0
20260506163806 18 297 3.2 9.7 0.00 1.96 1.96 49 1010.1
20260506163305 18 303 1.6 16.1 0.00 1.96 1.96 47 1010.1
20260506161806 18 305 4.8 12.9 0.00 1.96 1.96 45 1009.8
20260506161304 18 295 3.2 9.7 0.00 1.96 1.96 44 1009.9
20260506160806 18 308 3.2 16.1 0.00 1.96 1.96 44 1010.2
20260506160304 18 315 3.2 20.9 0.00 1.96 1.96 44 1010.0
20260506154805 20 303 1.6 9.7 0.00 1.96 1.96 43 1009.7
20260506154304 19 289 4.8 16.1 0.00 1.96 1.96 42 1009.8
20260506151805 19 278 6.4 16.1 0.00 1.96 1.96 45 1009.6
20260506150804 20 301 4.8 14.5 0.00 1.96 1.96 44 1009.6
20260506144805 20 290 3.2 16.1 0.00 1.96 1.96 42 1009.7
20260506144305 20 292 8.0 16.1 0.00 1.96 1.96 41 1009.5
20260506143806 19 298 4.8 22.5 0.00 1.96 1.96 42 1009.8
20260506143305 20 302 4.8 20.9 0.00 1.96 1.96 43 1009.8
20260506141805 20 311 3.2 14.5 0.00 1.96 1.96 46 1009.6
20260506141304 20 288 3.2 22.5 0.00 1.96 1.96 46 1009.5
20260506140804 19 282 3.2 12.9 0.00 1.96 1.96 48 1009.6
20260506140305 19 254 4.8 20.9 0.00 1.96 1.96 47 1009.6
20260506134804 19 54 3.2 11.3 0.00 1.96 1.96 46 1009.9
20260506134304 19 299 4.8 16.1 0.00 1.96 1.96 48 1009.9
20260506133805 20 322 3.2 9.7 0.00 1.96 1.96 46 1009.6
20260506133304 20 345 3.2 14.5 0.00 1.96 1.96 49 1009.8
20260506131805 19 288 1.6 16.1 0.00 1.96 1.96 49 1010.1
20260506131306 18 333 3.2 19.3 0.00 1.96 1.96 49 1010.0
20260506130804 19 344 3.2 12.9 0.00 1.96 1.96 46 1009.8
20260506130304 17 316 4.8 11.3 0.00 1.96 1.96 51 1010.3
20260506124805 17 25 1.6 8.0 0.00 1.96 1.96 51 1010.1
20260506124304 17 270 1.6 9.7 0.00 1.96 1.96 52 1010.4
20260506123306 17 14 4.8 19.3 0.00 1.96 1.96 53 1010.3
20260506121804 18 289 4.8 14.5 0.00 1.96 1.96 54 1010.3
20260506121306 18 333 1.6 12.9 0.00 1.96 1.96 54 1010.4
20260506120805 18 24 4.8 12.9 0.00 1.96 1.96 52 1010.3
20260506120305 18 287 3.2 16.1 0.00 1.96 1.96 55 1010.3
20260506114304 18 20 1.6 8.0 0.00 1.96 1.96 54 1010.5
20260506113806 18 7 3.2 12.9 0.00 1.96 1.96 55 1010.3
20260506113305 18 281 4.8 20.9 0.00 1.96 1.96 54 1010.3
20260506111805 18 316 1.6 12.9 0.00 1.96 1.96 56 1010.5
20260506111305 18 295 3.2 9.7 0.00 1.96 1.96 56 1010.6
20260506110804 18 320 3.2 11.3 0.00 1.96 1.96 58 1010.7
20260506110304 18 316 1.6 16.1 0.00 1.96 1.96 60 1010.8
20260506104304 18 296 1.6 8.0 0.00 1.96 1.96 58 1010.8
20260506103805 18 329 3.2 8.0 0.00 1.96 1.96 60 1010.8
20260506103305 18 25 1.6 14.5 0.00 1.96 1.96 58 1010.9
20260506101804 16 295 4.8 11.3 0.00 1.96 1.96 64 1011.2
20260506100804 17 356 3.2 11.3 0.00 1.96 1.96 65 1010.9
20260506094805 16 304 3.2 11.3 0.00 1.96 1.96 68 1011.2
20260506093805 16 339 3.2 9.7 0.00 1.96 1.96 69 1011.0
20260506093304 16 337 4.8 11.3 0.00 1.98 1.96 70 1010.9
20260506091804 15 304 3.2 9.7 0.00 1.98 1.96 73 1011.3
20260506091304 15 304 3.2 11.3 0.00 1.98 1.96 75 1011.0
20260506090305 15 353 1.6 9.7 0.00 1.98 1.96 75 1010.8
20260506084805 15 314 3.2 11.3 0.00 1.98 1.96 75 1010.8
20260506084304 15 354 3.2 12.9 0.00 1.98 1.96 75 1010.9
20260506083806 15 318 3.2 11.3 0.00 1.98 1.96 76 1010.8
20260506083306 14 318 1.6 8.0 0.00 1.98 1.96 79 1010.6
20260506081806 13 300 3.2 9.7 0.00 1.98 1.96 82 1010.8
20260506081304 13 65 1.6 4.8 0.00 1.98 1.96 86 1011.0
20260506080804 13 6 0.0 4.8 0.00 1.98 1.96 84 1010.9
20260506080305 13 8 1.6 8.0 0.00 1.98 1.96 85 1010.8
20260506073304 13 7 3.2 8.0 0.00 1.98 1.96 85 1010.4
20260506071806 13 106 3.2 8.0 0.00 1.98 1.96 86 1010.6
20260506071304 12 27 4.8 9.7 0.00 1.98 1.96 89 1010.7
20260506070804 12 342 1.6 3.2 0.00 1.98 1.96 90 1010.6
20260506070304 12 351 1.6 4.8 0.00 1.98 1.96 91 1010.6
20260506061804 15 65 1.6 3.2 0.00 1.98 1.96 85 1009.9
20260506061305 14 160 0.0 3.2 0.00 1.98 1.96 86 1009.7
20260506060803 13 92 3.2 4.8 0.00 1.98 1.96 87 1009.8
20260506060304 14 122 1.6 3.2 0.00 1.98 1.96 87 1009.8
20260506051304 11 36 0.0 3.2 0.00 2.01 1.96 97 1009.9
20260506050805 11 326 1.6 3.2 0.00 2.01 1.96 98 1009.7
20260506050305 10 263 0.0 3.2 0.00 2.01 1.96 98 1009.8
20260506044804 10 255 0.0 1.6 0.00 2.01 1.96 98 1009.8
20260506044304 10 123 0.0 1.6 0.00 2.01 1.96 98 1010.0
20260506041804 10 286 0.0 1.6 0.00 2.01 1.96 98 1009.9
20260506040804 10 309 0.0 1.6 0.00 2.01 1.96 98 1009.8
20260506040303 10 189 1.6 3.2 0.00 2.01 1.96 98 1010.1
20260506034804 10 235 0.0 0.0 0.00 2.01 1.96 98 1010.1
20260506034304 10 105 0.0 1.6 0.00 2.01 1.96 98 1009.8
20260506033804 10 235 0.0 1.6 0.00 2.01 1.96 98 1009.9
20260506033304 10 269 0.0 0.0 0.00 2.01 1.96 98 1010.0
20260506031805 10 55 0.0 1.6 0.00 2.03 1.96 98 1009.8
20260506030804 10 147 0.0 0.0 0.00 2.03 1.96 97 1009.7
20260506030305 10 149 0.0 1.6 0.00 2.03 1.96 97 1009.8
20260506024804 10 76 0.0 0.0 0.00 2.16 1.96 97 1009.7
20260506024306 10 103 0.0 1.6 0.00 2.26 1.96 97 1009.5
20260506023806 10 40 0.0 0.0 0.00 2.31 1.96 97 1009.7
20260506023306 10 32 0.0 8.0 0.00 2.31 1.96 97 1009.5
20260506021806 10 96 4.8 8.0 0.03 2.54 1.96 97 1009.4
20260506021305 10 93 3.2 8.0 0.08 2.54 1.96 97 1009.6
20260506020807 10 67 3.2 3.2 0.18 2.54 1.96 97 1009.6
20260506020306 11 57 3.2 8.0 0.41 2.54 1.96 97 1009.5
20260506014805 11 90 1.6 4.8 1.22 2.54 1.96 97 1009.5
20260506014305 11 141 1.6 3.2 1.32 2.54 1.96 97 1009.4
20260506013805 11 117 0.0 3.2 1.47 2.54 1.96 97 1009.4
20260506013305 11 254 1.6 9.7 1.63 2.54 1.96 97 1009.4
20260506011805 11 51 4.8 11.3 1.65 2.51 1.93 97 1009.4
20260506011306 11 88 3.2 4.8 1.63 2.46 1.88 97 1010.2
20260506010805 11 207 1.6 3.2 1.55 2.36 1.78 97 1010.5
20260506004305 12 163 3.2 4.8 0.64 1.22 0.64 96 1010.0
20260506003806 12 50 0.0 3.2 0.48 1.07 0.48 96 1009.9
20260506003305 12 90 1.6 9.7 0.33 0.91 0.33 96 1009.9
20260506001805 12 158 1.6 14.5 0.28 0.89 0.28 96 1009.9
20260506001305 12 98 4.8 12.9 0.25 0.89 0.25 96 1009.9
20260506000305 12 91 0.0 3.2 0.10 0.76 0.10 95 1010.1
20260505234305 12 51 0.0 1.6 0.00 0.71 0.00 95 1010.1
20260505233805 12 50 0.0 1.6 0.00 0.71 0.00 95 1010.2
20260505233306 12 287 0.0 8.0 0.00 0.71 0.00 95 1009.9
20260505231306 12 350 1.6 3.2 0.00 0.71 0.00 95 1010.8
20260505230806 12 102 0.0 1.6 0.00 0.76 0.00 95 1010.6
20260505230305 12 82 0.0 8.0 0.00 0.76 0.00 95 1010.8
20260505224805 12 73 3.2 8.0 0.00 0.81 0.00 95 1010.7
20260505224305 12 101 1.6 3.2 0.00 0.81 0.00 95 1011.0
20260505223305 12 124 0.0 9.7 0.00 0.84 0.00 95 1011.2
20260505221805 11 102 3.2 9.7 0.00 0.86 0.00 94 1011.0
20260505221305 11 170 1.6 1.6 0.00 0.89 0.00 94 1011.3
20260505220805 12 129 0.0 3.2 0.00 0.91 0.00 94 1011.4
20260505214305 12 50 0.0 1.6 0.00 0.91 0.91 93 1012.0
20260505213804 12 61 1.6 3.2 0.00 0.91 0.91 92 1011.8
20260505213305 12 299 1.6 4.8 0.00 0.91 0.91 92 1011.9
20260505211804 13 224 0.0 0.0 0.00 0.94 0.91 91 1011.9
20260505211305 13 114 1.6 3.2 0.00 0.94 0.91 90 1011.8
20260505210805 13 78 4.8 9.7 0.00 0.94 0.91 89 1011.5
20260505210305 13 92 3.2 8.0 0.00 0.94 0.91 88 1011.6
20260505203804 13 94 3.2 8.0 0.00 0.94 0.91 86 1012.3
20260505203305 13 94 1.6 8.0 0.00 0.94 0.91 86 1012.3
20260505201805 13 215 1.6 3.2 0.00 0.99 0.91 86 1012.2
20260505200806 13 214 1.6 3.2 0.00 0.99 0.91 87 1012.3
20260505200305 13 136 0.0 3.2 0.00 0.99 0.91 86 1012.3
20260505194805 14 91 0.0 1.6 0.00 0.99 0.91 84 1011.7
20260505194305 14 83 3.2 8.0 0.00 0.99 0.91 84 1011.8
20260505193306 14 65 3.2 11.3 0.00 0.99 0.91 83 1012.0
20260505191805 14 52 0.0 3.2 0.00 0.99 0.91 81 1011.7
20260505191305 14 5 0.0 4.8 0.00 0.99 0.91 80 1011.9
20260505190806 15 30 1.6 3.2 0.00 0.99 0.91 78 1011.9
20260505190306 15 101 1.6 4.8 0.00 0.99 0.91 77 1011.8